Simultaneous Nadir Overpasses (SNOs) Predictions

Prediction of SNOs between GOES-16 and TERRA Satellite Orbit:

Table of predicted SNOs for the next 14.0 days since TLE Epoch: 2/13/2021
Index Date Time (GOES-16) GOES-16 Lat,Lon TERRA Lat,Lon Distance(km) Time Diff (sec)
1 02/13/2021 15:29:11 0.00, -75.14 0.01, -75.25 12.05 80
2 02/15/2021 15:19:38 0.00, -75.15 -0.62, -72.29 325.89 80
3 02/16/2021 03:41:02 -0.00, -75.13 -0.47, -77.48 266.82 80
4 02/18/2021 03:26:09 -0.00, -75.15 0.16, -74.52 71.68 80
5 02/20/2021 03:13:56 -0.00, -75.17 0.79, -71.57 410.43 80
6 02/20/2021 15:35:11 0.01, -75.20 0.31, -76.72 172.46 80
7 02/22/2021 15:25:38 0.01, -75.23 -0.32, -73.76 166.74 80
8 02/23/2021 03:47:01 -0.01, -75.21 -0.83, -78.95 425.33 80
9 02/25/2021 03:34:48 -0.01, -75.24 -0.18, -75.99 85.76 80
